Warning: Javascript must be enabled to use all the features on this page!


Page Loading - Please Wait...

Click to hideNews Bulletins

Peak Streamflow for the Nation

USGS 09371000 MANCOS RIVER NEAR TOWAOC, CO.

Montezuma County, Colorado
Hydrologic Unit Code 14080107
Latitude  37°01'39", Longitude 108°44'27" NAD27
Drainage area 526  square miles
Gage datum 5,055.98 feet above NGVD29
Output formats
Table
Graph
Tab-separated file
peakfq (watstore) format
Reselect output format
Water
Year
Date Gage
Height
(feet)
Stream-
flow
(cfs)
1921 1921-08-25 5.90 1,990
1922 1922-05-06   1,0801,2
1923 1923-05-02   5011,2
1924 1924-05-04   7201,2
1925 1925-05-05   1371,2
1926 1926-05-06   1,7001,2
1927 1927-06-29 5.90 1,9302
1928 1928-05-03 4.00 1,500
1929 1929-08-05 5.20 2,210
1930 1930-04-22   4201,2
1931 1931-09-15 3.70 660
1932 1931-10-02 4.55 1,250
1933 1933-07-12 3.20 1,450
1934 1934-08-26 5.85 4,900
1935 1935-05-26 1.77 439
1936 1936-09-03 4.08 2,310
1937 1937-07-28 4.60 2,350
1938 1938-08-31 4.52 1,780
1939 1939-09-10 3.90 1,170
1940 1940-09-22 8.656 4,600
1941 1941-05-14 5.90 1,290
1942 1941-10-14 7.30 5,300
1943 1943-07-31 3.106 860
1951 1951-09-29 5.71 1,160
1952 1952-05-05 5.31 867
1953 1953-07-30 9.15 4,300
1954 1953-10-23 5.12 942
1955 1955-08-14 4.776 1,640
1956 1956-07-31 4.40 1,210
1957 1957-08-06 5.79 2,780
1958 1958-09-13 4.80 1,670
1959 1959-08-07 3.96 1,020
1960 1959-11-03 2.64 289
1961 1961-08-17 2.64 272
1962 1962-09-28 2.94 370
1963 1963-08-27 4.73 1,480
1964 1964-07-12 4.00 875
1965 1965-05-20 3.36 430
1966 1966-03-09 3.44 456
1967 1967-09-08 4.86 1,740
1968 1968-07-28 4.18 1,030
1969 1969-07-20 4.28 860
1970 1970-09-06 8.50 4,530
1971 1971-08-21 4.882 986
1972 1971-10-17 4.18 560
1973 1973-05-27 5.182 1,320
1974 1974-07-20 3.47 535
1975 1975-05-15 4.66 856
1976 1976-07-27 5.30 1,280
1977 1977-09-03 5.44 1,490
1978 1978-05-17 4.03 575
1979 1979-05-27 6.13 2,200
1980 1980-06-23 4.65 1,100
1981 1981-07-13 5.72 1,790
1982 1982-08-25 5.66 1,660
1983 1983-05-11 4.14 712
1984 1984-08-24 4.85 1,040
1985 1985-05-05 3.86 564
1986 1986-04-03 5.80 2,000
1987 1987-08-08 5.69 1,900
1988 1988-08-07 5.18 1,350
1989 1989-07-31 5.22 1,460
1990 1990-09-19 4.78 928
1991 1991-09-10 5.58 1,580
1992 1992-05-24 4.57 817
1993 1993-05-17 4.65 852
1994 1994-03-04 3.28 388
1995 1995-03-06 4.66 848
1996 1996-08-28 4.99 1,010
1997 1997-09-22 4.92 889
1998 1998-08-01 4.71 788
1999 1999-07-23 5.64 1,350
2000 2000-04-28 2.98 244
2001 2001-08-14 4.462 815
2002 2002-07-23 2.90 219
2003 2003-09-10 9.09 3,530
2004 2004-09-05 3.83 314
2005 2005-05-24 4.37 665
2006 2006-08-07 4.02 535
2007 2007-09-23 5.09 928
2008 2008-07-23 4.00 507
2009 2009-05-13 3.17 271
2010 2010-09-23 6.91 1,910
2011 2010-10-22 4.15 557
2012 2012-08-23 3.30 270
2013 2013-09-23 10.06 4,310
2014 2014-09-28 5.78 1,420
2015 2015-07-08 6.64 1,920
2016 2016-08-05 5.76 1,410
2017 2017-07-29 3.97 419
2018 2017-10-01 2.492 51.3
2019 2019-06-05 4.17 517
2020 2020-07-29 2.50 64.4
2021 2021-07-24 4.30 585
?
  Peak Gage-Height Qualification Codes.
?
  Peak Streamflow Qualification Codes.